FW5813 Weather Reports


time (UTC)temp
C
wind
direction
speed
KPH
gust
KPH
rain 1hr
cm
rain 24hr
cm
rain mn
cm
humidity
%
barometer
mb
20260903033610 15 62 0.0 1.6 0.00 0.00 0.00 75 1019.7
20260903032558 15 40 1.6 1.6 0.00 0.00 0.00 76 1019.8
20260903032058 15 44 0.0 1.6 0.00 0.00 0.00 75 1019.5
20260903031558 15 44 0.0 3.2 0.00 0.00 0.00 75 1019.7
20260903031058 15 37 1.6 3.2 0.00 0.00 0.00 74 1019.6
20260903030108 15 242 0.0 3.2 0.00 0.00 0.00 73 1019.5
20260903025558 16 54 0.0 3.2 0.00 0.00 0.00 73 1019.5
20260903025059 16 21 3.2 3.2 0.00 0.00 0.00 73 1019.8
20260903024558 16 25 0.0 1.6 0.00 0.00 0.00 73 1019.6
20260903024058 16 135 0.0 3.2 0.00 0.00 0.00 72 1019.7
20260903023558 16 22 1.6 3.2 0.00 0.00 0.00 72 1019.7
20260903023058 16 47 3.2 3.2 0.00 0.00 0.00 72 1019.6
20260903022558 16 57 0.0 4.8 0.00 0.00 0.00 71 1019.6
20260903021558 16 76 1.6 3.2 0.00 0.00 0.00 71 1019.6
20260903021058 16 52 3.2 3.2 0.00 0.00 0.00 70 1019.9
20260903020557 16 31 0.0 3.2 0.00 0.00 0.00 70 1019.6
20260903020111 17 44 0.0 3.2 0.00 0.00 0.00 70 1019.5
20260903015558 17 19 0.0 1.6 0.00 0.00 0.00 70 1019.6
20260903015058 16 51 0.0 3.2 0.00 0.00 0.00 70 1019.8
20260903014558 16 18 1.6 3.2 0.00 0.00 0.00 70 1019.8
20260903014057 16 44 3.2 3.2 0.00 0.00 0.00 70 1020.0
20260903013558 17 40 0.0 3.2 0.00 0.00 0.00 69 1019.8
20260903013058 16 60 0.0 3.2 0.00 0.00 0.00 69 1019.8
20260903012558 16 77 0.0 1.6 0.00 0.00 0.00 70 1019.9
20260903012058 17 44 0.0 3.2 0.00 0.00 0.00 69 1019.8
20260903011558 16 38 0.0 3.2 0.00 0.00 0.00 70 1019.6
20260903011058 16 29 0.0 3.2 0.00 0.00 0.00 70 1019.8
20260903010557 16 89 0.0 3.2 0.00 0.00 0.00 70 1019.8
20260903005558 16 135 0.0 3.2 0.00 0.00 0.00 70 1019.6
20260903005058 16 97 3.2 3.2 0.00 0.00 0.00 69 1019.8
20260903004600 16 149 0.0 3.2 0.00 0.00 0.00 70 1019.7
20260903004058 16 134 0.0 3.2 0.00 0.00 0.00 70 1019.8
20260903003558 16 139 0.0 3.2 0.00 0.00 0.00 70 1019.6
20260903003058 16 102 1.6 3.2 0.00 0.00 0.00 69 1019.8
20260903002558 16 129 0.0 3.2 0.00 0.00 0.00 69 1019.8
20260903002059 16 146 0.0 3.2 0.00 0.00 0.00 69 1019.7
20260903001559 16 166 0.0 1.6 0.00 0.00 0.00 69 1019.8
20260903001058 16 129 0.0 1.6 0.00 0.00 0.00 69 1019.9
20260903000558 16 161 1.6 1.6 0.00 0.00 0.00 69 1019.8
20260903000111 16 135 0.0 0.0 0.00 0.00 0.00 68 1019.9
20260902235558 17 224 0.0 0.0 0.00 0.00 0.00 68 1019.7
20260902234558 17 224 0.0 1.6 0.00 0.00 0.00 67 1019.7
20260902234058 17 89 0.0 1.6 0.00 0.00 0.00 66 1019.7
20260902233558 17 135 0.0 3.2 0.00 0.00 0.00 65 1019.9
20260902233058 17 173 0.0 3.2 0.00 0.00 0.00 64 1019.5
20260902232558 18 139 0.0 3.2 0.00 0.00 0.00 63 1019.6
20260902232058 18 141 3.2 3.2 0.00 0.00 0.00 62 1019.6
20260902231058 18 315 0.0 6.4 0.00 0.00 0.00 61 1019.7
20260902230558 18 18 0.0 6.4 0.00 0.00 0.00 60 1019.9
20260902225558 18 48 0.0 4.8 0.00 0.00 0.00 60 1019.8
20260902225058 18 38 0.0 4.8 0.00 0.00 0.00 60 1019.7
20260902224059 18 34 1.6 4.8 0.00 0.00 0.00 60 1019.6
20260902223557 18 341 0.0 3.2 0.00 0.00 0.00 60 1019.8
20260902223058 18 250 0.0 3.2 0.00 0.00 0.00 60 1019.8
20260902222557 18 312 0.0 3.2 0.00 0.00 0.00 60 1019.6
20260902221558 19 12 0.0 3.2 0.00 0.00 0.00 59 1019.7
20260902221058 19 297 0.0 3.2 0.00 0.00 0.00 59 1019.5
20260902220558 19 13 0.0 3.2 0.00 0.00 0.00 58 1019.7
20260902220111 19 319 0.0 3.2 0.00 0.00 0.00 58 1019.7
20260902215058 20 44 0.0 4.8 0.00 0.00 0.00 57 1019.6
20260902214606 20 79 3.2 4.8 0.00 0.00 0.00 56 1019.6
20260902214100 20 37 0.0 3.2 0.00 0.00 0.00 55 1019.7
20260902213559 20 13 0.0 3.2 0.00 0.00 0.00 54 1019.7
20260902213059 20 20 0.0 3.2 0.00 0.00 0.00 54 1019.6
20260902212611 20 241 1.6 3.2 0.00 0.00 0.00 54 1019.6
20260902212059 20 218 0.0 3.2 0.00 0.00 0.00 53 1019.4
20260902211558 20 6 0.0 3.2 0.00 0.00 0.00 53 1019.3
20260902211058 20 321 0.0 3.2 0.00 0.00 0.00 53 1019.4
20260902210558 20 37 0.0 4.8 0.00 0.00 0.00 53 1019.1
20260902210110 21 293 0.0 4.8 0.00 0.00 0.00 52 1019.3
20260902205558 21 35 1.6 3.2 0.00 0.00 0.00 52 1019.2
20260902204559 21 343 0.0 4.8 0.00 0.00 0.00 52 1019.0
20260902203558 21 348 0.0 4.8 0.00 0.00 0.00 51 1018.9
20260902202559 21 50 0.0 3.2 0.00 0.00 0.00 51 1019.0
20260902202058 21 5 0.0 4.8 0.00 0.00 0.00 51 1019.1
20260902201559 21 13 0.0 4.8 0.00 0.00 0.00 50 1018.9
20260902201058 21 352 3.2 4.8 0.00 0.00 0.00 50 1018.9
20260902200559 21 355 3.2 4.8 0.00 0.00 0.00 50 1019.1
20260902200108 21 18 3.2 4.8 0.00 0.00 0.00 50 1018.9
20260902195559 21 23 1.6 4.8 0.00 0.00 0.00 49 1019.2
20260902195058 21 351 3.2 4.8 0.00 0.00 0.00 49 1018.9
20260902194558 21 11 0.0 8.0 0.00 0.00 0.00 48 1019.0
20260902194058 21 14 3.2 8.0 0.00 0.00 0.00 48 1018.8
20260902193058 22 8 4.8 6.4 0.00 0.00 0.00 47 1019.1
20260902192558 21 358 3.2 6.4 0.00 0.00 0.00 47 1018.8
20260902192058 22 336 1.6 4.8 0.00 0.00 0.00 47 1018.9
20260902191558 22 24 1.6 4.8 0.00 0.00 0.00 47 1018.9
20260902191059 22 4 3.2 3.2 0.00 0.00 0.00 47 1018.7
20260902190559 22 353 0.0 4.8 0.00 0.00 0.00 46 1018.9
20260902190112 22 354 1.6 6.4 0.00 0.00 0.00 46 1018.7
20260902185559 22 325 3.2 6.4 0.00 0.00 0.00 47 1018.8
20260902185059 23 9 1.6 4.8 0.00 0.00 0.00 46 1018.6
20260902184058 23 353 3.2 6.4 0.00 0.00 0.00 45 1018.5
20260902183558 23 22 0.0 3.2 0.00 0.00 0.00 46 1018.5
20260902183058 23 352 0.0 3.2 0.00 0.00 0.00 46 1018.3
20260902182558 23 16 0.0 3.2 0.00 0.00 0.00 45 1018.3
20260902182058 23 44 1.6 3.2 0.00 0.00 0.00 45 1018.5
20260902181558 23 100 1.6 3.2 0.00 0.00 0.00 44 1018.4
20260902181058 23 38 0.0 3.2 0.00 0.00 0.00 45 1018.4
20260902180558 23 0 0.0 3.2 0.00 0.00 0.00 44 1018.2
20260902180111 23 315 0.0 4.8 0.00 0.00 0.00 44 1018.1
20260902175558 23 276 0.0 4.8 0.00 0.00 0.00 44 1017.8
20260902175058 24 12 0.0 3.2 0.00 0.00 0.00 44 1018.1
20260902174559 24 6 0.0 1.6 0.00 0.00 0.00 43 1017.9
20260902174058 24 310 0.0 1.6 0.00 0.00 0.00 43 1018.1
20260902173558 25 322 0.0 3.2 0.00 0.00 0.00 43 1017.8
20260902173058 25 311 0.0 3.2 0.00 0.00 0.00 43 1017.9
20260902172558 25 333 0.0 1.6 0.00 0.00 0.00 43 1017.7
20260902172058 25 75 0.0 1.6 0.00 0.00 0.00 41 1017.7
20260902171558 25 68 0.0 3.2 0.00 0.00 0.00 40 1017.6
20260902171058 26 128 0.0 3.2 0.00 0.00 0.00 40 1017.9
20260902170558 26 235 0.0 3.2 0.00 0.00 0.00 40 1017.8
20260902170111 26 246 0.0 3.2 0.00 0.00 0.00 39 1017.7
20260902165558 26 192 0.0 4.8 0.00 0.00 0.00 39 1017.9
20260902164559 26 128 0.0 6.4 0.00 0.00 0.00 38 1017.8
20260902163558 27 117 3.2 4.8 0.00 0.00 0.00 36 1017.6
20260902163058 28 202 0.0 4.8 0.00 0.00 0.00 35 1017.9
20260902162559 27 255 0.0 4.8 0.00 0.00 0.00 36 1017.8
20260902162058 28 119 3.2 9.7 0.00 0.00 0.00 35 1018.2
20260902161559 27 35 3.2 9.7 0.00 0.00 0.00 38 1017.9
20260902161058 27 178 3.2 6.4 0.00 0.00 0.00 36 1018.1
20260902160110 28 226 3.2 8.0 0.00 0.00 0.00 36 1017.8
20260902155558 28 255 0.0 6.4 0.00 0.00 0.00 35 1017.9
20260902155058 28 255 4.8 6.4 0.00 0.00 0.00 35 1018.1
20260902154558 28 231 1.6 4.8 0.00 0.00 0.00 35 1018.1
20260902154058 28 260 0.0 3.2 0.00 0.00 0.00 36 1018.1
20260902153558 27 285 1.6 3.2 0.00 0.00 0.00 36 1018.2
20260902153059 28 8 0.0 3.2 0.00 0.00 0.00 37 1018.3
20260902152558 27 247 3.2 6.4 0.00 0.00 0.00 36 1017.9
20260902151558 28 32 3.2 6.4 0.00 0.00 0.00 36 1018.3
20260902151100 28 340 0.0 4.8 0.00 0.00 0.00 36 1018.2
20260902150558 28 314 3.2 4.8 0.00 0.00 0.00 35 1018.3
20260902150107 28 89 0.0 6.4 0.00 0.00 0.00 35 1018.2
20260902145558 28 224 4.8 6.4 0.00 0.00 0.00 35 1018.3
20260902145058 28 281 0.0 4.8 0.00 0.00 0.00 36 1018.3
20260902144558 29 50 0.0 4.8 0.00 0.00 0.00 34 1018.2
20260902144058 29 309 3.2 8.0 0.00 0.00 0.00 34 1018.4
20260902143559 28 257 3.2 8.0 0.00 0.00 0.00 35 1018.5
20260902143059 28 228 1.6 6.4 0.00 0.00 0.00 35 1018.4
20260902142559 28 285 3.2 8.0 0.00 0.00 0.00 35 1018.5
20260902141558 27 235 3.2 6.4 0.00 0.00 0.00 36 1018.7
20260902141059 27 99 4.8 4.8 0.00 0.00 0.00 37 1018.7
20260902140559 27 205 0.0 6.4 0.00 0.00 0.00 36 1018.8
20260902140110 27 235 0.0 6.4 0.00 0.00 0.00 36 1018.6
20260902135558 27 221 1.6 6.4 0.00 0.00 0.00 36 1018.8
20260902135059 27 198 3.2 6.4 0.00 0.00 0.00 36 1018.7
20260902134558 27 169 3.2 6.4 0.00 0.00 0.00 36 1018.8
20260902134059 27 185 6.4 6.4 0.00 0.00 0.00 36 1018.9
20260902133559 28 9 0.0 4.8 0.00 0.00 0.00 34 1018.8
20260902133058 29 75 0.0 4.8 0.00 0.00 0.00 34 1018.8
20260902132558 29 234 1.6 9.7 0.00 0.00 0.00 34 1019.1
20260902131058 29 252 3.2 9.7 0.00 0.00 0.00 35 1019.2
20260902130558 28 204 1.6 9.7 0.00 0.00 0.00 34 1019.1
20260902125559 28 230 8.0 9.7 0.00 0.00 0.00 34 1019.1
20260902124058 29 14 3.2 9.7 0.00 0.00 0.00 35 1019.5
20260902123559 29 351 0.0 9.7 0.00 0.00 0.00 35 1019.4
20260902123058 30 282 3.2 9.7 0.00 0.00 0.00 33 1019.4
20260902122059 29 104 3.2 9.7 0.00 0.00 0.00 34 1019.4
20260902121559 30 336 1.6 16.1 0.00 0.00 0.00 33 1019.6
20260902121058 29 201 6.4 25.7 0.00 0.00 0.00 34 1019.5
20260902120558 30 213 4.8 25.7 0.00 0.00 0.00 33 1019.7
20260902115558 29 354 3.2 9.7 0.00 0.00 0.00 35 1019.6
20260902115059 29 258 4.8 14.5 0.00 0.00 0.00 35 1019.7
20260902114559 28 268 1.6 17.7 0.00 0.00 0.00 37 1019.9
20260902113559 27 42 3.2 16.1 0.00 0.00 0.00 37 1020.1
20260902113059 29 224 4.8 8.0 0.00 0.00 0.00 34 1020.0
20260902112558 29 268 3.2 9.7 0.00 0.00 0.00 34 1020.0
20260902112058 29 340 3.2 9.7 0.00 0.00 0.00 35 1019.9
20260902111559 28 230 3.2 14.5 0.00 0.00 0.00 35 1020.0
20260902111058 29 247 4.8 14.5 0.00 0.00 0.00 35 1020.4
20260902110600 28 228 3.2 12.9 0.00 0.00 0.00 35 1020.1
20260902110111 29 229 6.4 17.7 0.00 0.00 0.00 33 1020.2
20260902105059 27 157 4.8 14.5 0.00 0.00 0.00 38 1020.1
20260902104559 27 80 8.0 12.9 0.00 0.00 0.00 38 1020.0
20260902104059 28 192 4.8 8.0 0.00 0.00 0.00 38 1020.5
20260902103559 28 111 0.0 6.4 0.00 0.00 0.00 38 1020.4
20260902103059 28 220 6.4 6.4 0.00 0.00 0.00 35 1020.5
20260902102558 28 141 3.2 6.4 0.00 0.00 0.00 38 1020.5
20260902102059 27 208 0.0 8.0 0.00 0.00 0.00 38 1020.7
20260902101558 27 185 3.2 8.0 0.00 0.00 0.00 38 1020.6
20260902101059 27 45 3.2 9.7 0.00 0.00 0.00 39 1020.7
20260902100558 27 358 8.0 9.7 0.00 0.00 0.00 40 1020.7
20260902100111 26 322 0.0 6.4 0.00 0.00 0.00 39 1021.0
20260902095558 26 218 0.0 6.4 0.00 0.00 0.00 40 1020.7
20260902094558 26 198 6.4 9.7 0.00 0.00 0.00 39 1021.0
20260902094059 26 180 3.2 9.7 0.00 0.00 0.00 40 1021.1
20260902093558 26 233 6.4 11.3 0.00 0.00 0.00 40 1021.3
20260902093058 25 89 0.0 11.3 0.00 0.00 0.00 43 1021.0
20260902092059 26 224 1.6 4.8 0.00 0.00 0.00 40 1021.4
20260902091558 25 180 4.8 4.8 0.00 0.00 0.00 42 1021.4
20260902090558 25 167 1.6 6.4 0.00 0.00 0.00 43 1021.4
20260902090112 24 104 0.0 6.4 0.00 0.00 0.00 43 1021.3
20260902085558 25 186 3.2 6.4 0.00 0.00 0.00 43 1021.3
20260902085058 25 236 0.0 6.4 0.00 0.00 0.00 44 1021.3
20260902082603 23 103 0.0 6.4 0.00 0.00 0.00 47 1021.7
20260902082059 23 119 3.2 6.4 0.00 0.00 0.00 48 1021.5
20260902081559 23 34 1.6 6.4 0.00 0.00 0.00 49 1021.5
20260902080559 22 225 1.6 8.0 0.00 0.00 0.00 52 1021.7
20260902080117 22 167 4.8 8.0 0.00 0.00 0.00 53 1021.6
20260902075558 23 150 3.2 6.4 0.00 0.00 0.00 50 1021.5
20260902075058 22 31 1.6 6.4 0.00 0.00 0.00 53 1021.6
20260902074558 21 114 1.6 4.8 0.00 0.00 0.00 52 1021.6
20260902074058 21 337 3.2 6.4 0.00 0.00 0.00 55 1021.2
20260902073558 20 214 1.6 6.4 0.00 0.00 0.00 55 1021.6
20260902073058 20 85 4.8 6.4 0.00 0.00 0.00 58 1021.5
20260902072558 20 107 1.6 6.4 0.00 0.00 0.00 59 1021.4
20260902072058 20 104 3.2 4.8 0.00 0.00 0.00 56 1021.4
20260902071558 20 44 0.0 3.2 0.00 0.00 0.00 58 1021.3
20260902071058 19 9 1.6 3.2 0.00 0.00 0.00 60 1021.4
20260902070558 19 3 0.0 3.2 0.00 0.00 0.00 60 1021.6
20260902070111 18 230 0.0 3.2 0.00 0.00 0.00 61 1021.3
20260902065558 18 37 0.0 3.2 0.00 0.00 0.00 64 1021.3
20260902064558 18 148 0.0 4.8 0.00 0.00 0.00 65 1021.4
20260902064058 18 3 3.2 4.8 0.00 0.00 0.00 64 1021.2
20260902063558 18 44 0.0 3.2 0.00 0.00 0.00 64 1021.2
20260902063058 18 66 0.0 3.2 0.00 0.00 0.00 64 1021.0
20260902062558 18 119 0.0 3.2 0.00 0.00 0.00 64 1020.9
20260902062059 17 41 0.0 3.2 0.00 0.00 0.00 66 1020.9
20260902061558 17 284 1.6 3.2 0.00 0.00 0.00 66 1021.3
20260902061057 17 89 0.0 4.8 0.00 0.00 0.00 69 1021.2
20260902060558 16 116 1.6 4.8 0.00 0.00 0.00 71 1021.2
20260902060107 16 98 1.6 3.2 0.00 0.00 0.00 72 1021.2
20260902055558 16 115 3.2 3.2 0.00 0.00 0.00 72 1021.0
20260902054058 15 23 1.6 3.2 0.00 0.00 0.00 77 1021.1
20260902053558 15 173 0.0 1.6 0.00 0.00 0.00 79 1021.1
20260902053058 14 62 0.0 1.6 0.00 0.00 0.00 80 1021.1
20260902052058 14 117 1.6 3.2 0.00 0.00 0.00 79 1021.0
20260902051058 14 36 0.0 3.2 0.00 0.00 0.00 79 1021.2
20260902050558 14 21 1.6 3.2 0.00 0.00 0.00 79 1020.9
20260902050110 13 28 1.6 3.2 0.00 0.00 0.00 80 1021.0
20260902045058 13 89 0.0 3.2 0.00 0.00 0.00 80 1021.0
20260902044558 13 34 0.0 3.2 0.00 0.00 0.00 80 1020.7
20260902044058 13 116 1.6 3.2 0.00 0.00 0.00 79 1021.0
20260902043058 13 89 0.0 3.2 0.00 0.00 0.00 79 1021.0
20260902042558 13 24 3.2 3.2 0.00 0.00 0.00 78 1020.9
20260902041558 13 19 0.0 3.2 0.00 0.00 0.00 79 1020.8
20260902041059 13 15 0.0 3.2 0.00 0.00 0.00 79 1020.8
20260902040558 13 119 0.0 4.8 0.00 0.00 0.00 79 1021.1
20260902040108 13 353 3.2 4.8 0.00 0.00 0.00 79 1020.8
20260902035558 13 27 3.2 3.2 0.00 0.00 0.00 78 1020.6
20260902035058 13 37 3.2 3.2 0.00 0.00 0.00 80 1020.8
20260902034558 13 59 0.0 3.2 0.00 0.00 0.00 81 1020.8
20260902034058 12 55 0.0 3.2 0.00 0.00 0.00 82 1020.8